Location: Freistadt
(48.5112°N, 14.5013°E)
Time: 07:33:54
(UTC+02:00)

CUBEBUG 2 - Pass Details

Date: 10 April 2023
Orbit: 577 x 686 km, 97.8° (Epoch: 29 May)

Event Time Altitude Azimuth Distance (km) Brightness Sun altitude
Rises 03:40:36 0° 13° (NNE) 3,043 ? -24.0°
Reaches altitude 10° 03:42:52 10° 14° (NNE) 2,112 ? -23.7°
Maximum altitude 03:47:30 87° 102° (ESE) 666 ? -23.2°
Enters shadow 03:48:04 68° 185° (S) 708 ? -23.1°
